Time,TemperatureF,DewpointF,PressureIn,WindDirection,WindDirectionDegrees,WindSpeedMPH,WindSpeedGustMPH,Humidity,HourlyPrecipIn,Conditions,Clouds,dailyrainin,SolarRadiationWatts/m^2,SoftwareType,DateUTC
2013-01-14 00:00:00,3.2,-6.6,30.36,North,-999,0.0,0.0,63,0.00,,,-99.99,0,WeatherLink 5.7,2013-01-14 07:00:00,
2013-01-14 00:10:00,3.1,-6.3,30.37,North,-999,0.0,0.0,64,0.00,,,-99.99,0,WeatherLink 5.7,2013-01-14 07:10:00,
2013-01-14 00:20:00,2.9,-6.5,30.33,North,-999,0.0,0.0,64,0.00,,,-99.99,0,WeatherLink 5.7,2013-01-14 07:20:00,
2013-01-14 00:25:00,2.7,-6.4,30.33,North,-999,0.0,0.0,65,0.00,,,-99.99,0,WeatherLink 5.7,2013-01-14 07:25:00,
2013-01-14 00:30:00,2.7,-6.4,30.33,North,-999,0.0,0.0,65,0.00,,,-99.99,0,WeatherLink 5.7,2013-01-14 07:30:00,
2013-01-14 00:40:00,2.7,-6.4,30.33,North,-999,0.0,0.0,65,0.00,,,-99.99,0,WeatherLink 5.7,2013-01-14 07:40:00,
2013-01-14 00:45:00,2.5,-6.6,30.33,North,-999,0.0,0.0,65,0.00,,,-99.99,0,WeatherLink 5.7,2013-01-14 07:45:00,
2013-01-14 00:55:00,1.9,-7.2,30.35,North,-999,0.0,0.0,65,0.00,,,-99.99,0,WeatherLink 5.7,2013-01-14 07:55:00,
2013-01-14 01:00:00,1.5,-7.6,30.35,NW,315,0.0,1.0,65,0.00,,,-99.99,0,WeatherLink 5.7,2013-01-14 08:00:00,
2013-01-14 01:10:00,1.2,-7.8,30.36,East,90,1.0,2.0,65,0.00,,,-99.99,0,WeatherLink 5.7,2013-01-14 08:10:00,
2013-01-14 01:15:00,1.0,-7.7,30.36,East,90,0.0,2.0,66,0.00,,,-99.99,0,WeatherLink 5.7,2013-01-14 08:15:00,
2013-01-14 01:20:00,1.0,-7.7,30.36,East,90,0.0,2.0,66,0.00,,,-99.99,0,WeatherLink 5.7,2013-01-14 08:20:00,
2013-01-14 01:30:00,0.8,-7.9,30.36,North,-999,0.0,0.0,66,0.00,,,-99.99,0,WeatherLink 5.7,2013-01-14 08:30:00,
2013-01-14 01:35:00,0.8,-7.9,30.36,East,90,0.0,1.0,66,0.00,,,-99.99,0,WeatherLink 5.7,2013-01-14 08:35:00,
2013-01-14 01:40:00,0.8,-7.9,30.36,East,90,0.0,2.0,66,0.00,,,-99.99,0,WeatherLink 5.7,2013-01-14 08:40:00,
2013-01-14 01:50:00,0.4,-8.3,30.36,North,-999,0.0,0.0,66,0.00,,,-99.99,0,WeatherLink 5.7,2013-01-14 08:50:00,
2013-01-14 01:55:00,0.2,-8.5,30.36,North,-999,0.0,0.0,66,0.00,,,-99.99,0,WeatherLink 5.7,2013-01-14 08:55:00,
2013-01-14 02:00:00,0.0,-8.7,30.36,North,-999,0.0,0.0,66,0.00,,,-99.99,0,WeatherLink 5.7,2013-01-14 09:00:00,
2013-01-14 02:10:00,-0.2,-8.6,30.36,East,90,0.0,2.0,67,0.00,,,-99.99,0,WeatherLink 5.7,2013-01-14 09:10:00,
2013-01-14 02:20:00,-0.7,-9.0,30.39,East,90,0.0,2.0,67,0.00,,,-99.99,0,WeatherLink 5.7,2013-01-14 09:20:00,
2013-01-14 02:25:00,-1.1,-9.4,30.39,ESE,112,1.0,2.0,67,0.00,,,-99.99,0,WeatherLink 5.7,2013-01-14 09:25:00,
2013-01-14 02:30:00,-1.3,-9.6,30.39,ESE,112,1.0,2.0,67,0.00,,,-99.99,0,WeatherLink 5.7,2013-01-14 09:30:00,
2013-01-14 02:40:00,-1.7,-9.7,30.41,North,-999,0.0,0.0,68,0.00,,,-99.99,0,WeatherLink 5.7,2013-01-14 09:40:00,
2013-01-14 02:50:00,-1.9,-9.9,30.41,North,-999,0.0,0.0,68,0.00,,,-99.99,0,WeatherLink 5.7,2013-01-14 09:50:00,
2013-01-14 02:55:00,-2.1,-9.8,30.41,North,-999,0.0,0.0,69,0.00,,,-99.99,0,WeatherLink 5.7,2013-01-14 09:55:00,
2013-01-14 03:00:00,-2.1,-9.8,30.41,ESE,112,0.0,2.0,69,0.00,,,-99.99,0,WeatherLink 5.7,2013-01-14 10:00:00,
2013-01-14 03:10:00,-2.3,-10.3,30.41,North,-999,0.0,0.0,68,0.00,,,-99.99,0,WeatherLink 5.7,2013-01-14 10:10:00,
2013-01-14 03:20:00,-2.7,-10.7,30.42,ESE,112,0.0,2.0,68,0.00,,,-99.99,0,WeatherLink 5.7,2013-01-14 10:20:00,
2013-01-14 03:25:00,-2.9,-10.9,30.42,ESE,112,0.0,1.0,68,0.00,,,-99.99,0,WeatherLink 5.7,2013-01-14 10:25:00,
2013-01-14 03:30:00,-2.7,-10.7,30.42,ESE,112,0.0,1.0,68,0.00,,,-99.99,0,WeatherLink 5.7,2013-01-14 10:30:00,
2013-01-14 03:40:00,-3.4,-11.3,30.42,ESE,112,1.0,2.0,68,0.00,,,-99.99,0,WeatherLink 5.7,2013-01-14 10:40:00,
2013-01-14 03:45:00,-3.4,-11.3,30.42,ESE,112,0.0,1.0,68,0.00,,,-99.99,0,WeatherLink 5.7,2013-01-14 10:45:00,
2013-01-14 03:55:00,-3.1,-11.0,30.41,ESE,112,0.0,1.0,68,0.00,,,-99.99,0,WeatherLink 5.7,2013-01-14 10:55:00,
2013-01-14 04:00:00,-3.1,-11.0,30.41,ESE,112,0.0,1.0,68,0.00,,,-99.99,0,WeatherLink 5.7,2013-01-14 11:00:00,
2013-01-14 04:10:00,-3.1,-11.0,30.42,ESE,112,0.0,1.0,68,0.00,,,-99.99,0,WeatherLink 5.7,2013-01-14 11:10:00,
2013-01-14 04:15:00,-3.1,-11.0,30.42,ESE,112,0.0,1.0,68,0.00,,,-99.99,0,WeatherLink 5.7,2013-01-14 11:15:00,
2013-01-14 04:20:00,-3.1,-11.0,30.43,North,-999,0.0,0.0,68,0.00,,,-99.99,0,WeatherLink 5.7,2013-01-14 11:20:00,
2013-01-14 04:25:00,-3.6,-11.5,30.43,North,-999,0.0,0.0,68,0.00,,,-99.99,0,WeatherLink 5.7,2013-01-14 11:25:00,
2013-01-14 04:35:00,-4.0,-11.9,30.43,North,-999,0.0,0.0,68,0.00,,,-99.99,0,WeatherLink 5.7,2013-01-14 11:35:00,
2013-01-14 04:45:00,-4.4,-12.3,30.43,North,-999,0.0,0.0,68,0.00,,,-99.99,0,WeatherLink 5.7,2013-01-14 11:45:00,
2013-01-14 04:55:00,-4.9,-12.8,30.45,North,-999,0.0,0.0,68,0.00,,,-99.99,0,WeatherLink 5.7,2013-01-14 11:55:00,
2013-01-14 05:00:00,-5.1,-13.0,30.45,North,-999,0.0,0.0,68,0.00,,,-99.99,0,WeatherLink 5.7,2013-01-14 12:00:00,
2013-01-14 05:10:00,-4.9,-12.5,30.45,North,-999,0.0,0.0,69,0.00,,,-99.99,0,WeatherLink 5.7,2013-01-14 12:10:00,
2013-01-14 05:20:00,-5.1,-12.7,30.47,North,-999,0.0,0.0,69,0.00,,,-99.99,0,WeatherLink 5.7,2013-01-14 12:20:00,
2013-01-14 05:25:00,-5.1,-12.7,30.47,North,-999,0.0,0.0,69,0.00,,,-99.99,0,WeatherLink 5.7,2013-01-14 12:25:00,
2013-01-14 05:35:00,-5.3,-12.9,30.48,ESE,112,0.0,1.0,69,0.00,,,-99.99,0,WeatherLink 5.7,2013-01-14 12:35:00,
2013-01-14 05:45:00,-4.6,-12.2,30.48,ESE,112,0.0,2.0,69,0.00,,,-99.99,0,WeatherLink 5.7,2013-01-14 12:45:00,
2013-01-14 05:50:00,-4.6,-12.2,30.48,ESE,112,1.0,3.0,69,0.00,,,-99.99,0,WeatherLink 5.7,2013-01-14 12:50:00,
2013-01-14 06:00:00,-5.1,-12.7,30.48,North,-999,0.0,0.0,69,0.00,,,-99.99,0,WeatherLink 5.7,2013-01-14 13:00:00,
2013-01-14 06:10:00,-5.5,-13.3,30.49,North,-999,0.0,0.0,68,0.00,,,-99.99,0,WeatherLink 5.7,2013-01-14 13:10:00,
2013-01-14 06:20:00,-6.2,-14.0,30.51,North,-999,0.0,0.0,68,0.00,,,-99.99,0,WeatherLink 5.7,2013-01-14 13:20:00,
2013-01-14 06:30:00,-6.2,-13.7,30.51,North,-999,0.0,0.0,69,0.00,,,-99.99,0,WeatherLink 5.7,2013-01-14 13:30:00,
2013-01-14 06:35:00,-6.2,-13.7,30.51,North,-999,0.0,0.0,69,0.00,,,-99.99,0,WeatherLink 5.7,2013-01-14 13:35:00,
2013-01-14 06:45:00,-6.4,-13.9,30.51,North,-999,0.0,0.0,69,0.00,,,-99.99,0,WeatherLink 5.7,2013-01-14 13:45:00,
2013-01-14 06:50:00,-6.4,-13.9,30.53,North,-999,0.0,0.0,69,0.00,,,-99.99,0,WeatherLink 5.7,2013-01-14 13:50:00,
2013-01-14 07:00:00,-6.4,-13.9,30.53,North,-999,0.0,0.0,69,0.00,,,-99.99,0,WeatherLink 5.7,2013-01-14 14:00:00,
2013-01-14 07:10:00,-6.2,-13.7,30.53,North,-999,0.0,0.0,69,0.00,,,-99.99,0,WeatherLink 5.7,2013-01-14 14:10:00,
2013-01-14 07:15:00,-6.2,-13.7,30.53,North,-999,0.0,0.0,69,0.00,,,-99.99,0,WeatherLink 5.7,2013-01-14 14:15:00,
2013-01-14 07:20:00,-5.9,-13.4,30.53,North,-999,0.0,0.0,69,0.00,,,-99.99,0,WeatherLink 5.7,2013-01-14 14:20:00,
2013-01-14 07:30:00,-5.7,-13.3,30.53,ESE,112,0.0,2.0,69,0.00,,,-99.99,0,WeatherLink 5.7,2013-01-14 14:30:00,
2013-01-14 07:35:00,-5.7,-13.3,30.54,ESE,112,1.0,2.0,69,0.00,,,-99.99,0,WeatherLink 5.7,2013-01-14 14:35:00,
2013-01-14 07:40:00,-5.5,-13.1,30.54,ESE,112,0.0,4.0,69,0.00,,,-99.99,5,WeatherLink 5.7,2013-01-14 14:40:00,
2013-01-14 07:50:00,-5.5,-13.3,30.54,ESE,112,0.0,2.0,68,0.00,,,-99.99,15,WeatherLink 5.7,2013-01-14 14:50:00,
2013-01-14 08:00:00,-5.3,-12.9,30.54,ESE,112,0.0,2.0,69,0.00,,,-99.99,25,WeatherLink 5.7,2013-01-14 15:00:00,
2013-01-14 08:10:00,-5.3,-13.2,30.53,North,-999,0.0,0.0,68,0.00,,,-99.99,27,WeatherLink 5.7,2013-01-14 15:10:00,
2013-01-14 08:20:00,-4.9,-12.5,30.55,North,-999,0.0,0.0,69,0.00,,,-99.99,29,WeatherLink 5.7,2013-01-14 15:20:00,
2013-01-14 08:25:00,-4.6,-12.2,30.55,ESE,112,0.0,2.0,69,0.00,,,-99.99,32,WeatherLink 5.7,2013-01-14 15:25:00,
2013-01-14 08:35:00,-4.6,-12.2,30.55,ESE,112,0.0,2.0,69,0.00,,,-99.99,42,WeatherLink 5.7,2013-01-14 15:35:00,
2013-01-14 08:45:00,-4.2,-11.5,30.55,ESE,112,0.0,2.0,70,0.00,,,-99.99,56,WeatherLink 5.7,2013-01-14 15:45:00,
2013-01-14 08:50:00,-4.0,-11.3,30.55,ESE,112,0.0,2.0,70,0.00,,,-99.99,71,WeatherLink 5.7,2013-01-14 15:50:00,
2013-01-14 08:55:00,-3.6,-10.9,30.55,North,-999,0.0,0.0,70,0.00,,,-99.99,79,WeatherLink 5.7,2013-01-14 15:55:00,
2013-01-14 09:00:00,-3.4,-10.7,30.55,ESE,112,0.0,1.0,70,0.00,,,-99.99,81,WeatherLink 5.7,2013-01-14 16:00:00,
2013-01-14 09:10:00,-2.9,-10.3,30.53,ESE,112,0.0,2.0,70,0.00,,,-99.99,84,WeatherLink 5.7,2013-01-14 16:10:00,
2013-01-14 09:15:00,-2.5,-9.9,30.53,ESE,112,1.0,3.0,70,0.00,,,-99.99,96,WeatherLink 5.7,2013-01-14 16:15:00,
2013-01-14 09:20:00,-2.3,-9.4,30.55,East,90,2.0,4.0,71,0.00,,,-99.99,105,WeatherLink 5.7,2013-01-14 16:20:00,
2013-01-14 09:25:00,-2.1,-9.5,30.55,East,90,2.0,4.0,70,0.00,,,-99.99,119,WeatherLink 5.7,2013-01-14 16:25:00,
2013-01-14 09:35:00,-1.5,-8.9,30.55,East,90,2.0,3.0,70,0.00,,,-99.99,146,WeatherLink 5.7,2013-01-14 16:35:00,
2013-01-14 09:40:00,-1.3,-8.7,30.55,East,90,1.0,3.0,70,0.00,,,-99.99,168,WeatherLink 5.7,2013-01-14 16:40:00,
2013-01-14 09:50:00,-0.3,-7.8,30.52,SE,135,0.0,3.0,70,0.00,,,-99.99,251,WeatherLink 5.7,2013-01-14 16:50:00,
2013-01-14 09:55:00,0.4,-7.4,30.52,SE,135,1.0,2.0,69,0.00,,,-99.99,290,WeatherLink 5.7,2013-01-14 16:55:00,
2013-01-14 10:00:00,0.8,-7.3,30.52,South,180,0.0,2.0,68,0.00,,,-99.99,320,WeatherLink 5.7,2013-01-14 17:00:00,
2013-01-14 10:05:00,1.0,-7.4,30.50,ESE,112,1.0,3.0,67,0.00,,,-99.99,357,WeatherLink 5.7,2013-01-14 17:05:00,